• Join FlightAware (Why Join?)
  • Login
  • US Flag 
06:38PM EDT


 

Airport Tracker/Info


-or-


 

Live Flight TrackerFlight Track Log ✈ KAP927 ✈ 17-Aug-2013 ✈ KALB - KBOS

Flight Track Log - Related Links

Times and Time Zones

All times are in EDT time to prevent confusion due to time zone crossing. See the KAP927 flight status page for this flight to view local times or setup timezone preferences in your user account.

Time Position Orientation Groundspeed Altitude Reporting Facility
EDT Latitude Longitude Course Direction KTS MPH feet Rate Location/Type
08:49AM 42.7906 -73.7756 98° East 126 145 1,700  Level Boston Center
08:51AM 42.7850 -73.7217 98° East 130 150 2,200 480 Climbing Boston Center
08:52AM 42.7772 -73.6678 101° East 131 151 2,800 420 Climbing Boston Center
08:53AM 42.7653 -73.6167 108° East 133 153 3,200 420 Climbing Boston Center
08:54AM 42.7594 -73.5683 99° East 134 154 3,700 480 Climbing Boston Center
08:55AM 42.7539 -73.5061 97° East 135 155 4,300 480 Climbing Boston Center
08:56AM 42.7439 -73.4636 108° East 135 155 4,800 480 Climbing Boston Center
08:57AM 42.7358 -73.4153 103° East 135 155 5,300 420 Climbing Boston Center
08:58AM 42.7303 -73.3531 97° East 135 155 5,700 420 Climbing Boston Center
08:59AM 42.7242 -73.3106 101° East 135 155 6,200 420 Climbing Boston Center
09:00AM 42.7164 -73.2594 102° East 141 162 6,600 420 Climbing Boston Center
09:01AM 42.7064 -73.2058 104° East 148 170 7,100 360 Climbing Boston Center
09:02AM 42.7003 -73.1519 99° East 142 163 7,400 300 Climbing Boston Center
09:03AM 42.6903 -73.0953 103° East 147 169 7,700 120 Climbing Boston Center
09:04AM 42.6803 -73.0361 103° East 147 169 7,700  Level Boston Center
09:05AM 42.6764 -72.9794 95° East 157 181 7,700  Level Boston Center
09:06AM 42.6661 -72.9200 103° East 163 188 7,700  Level Boston Center
09:07AM 42.6558 -72.8608 103° East 163 188 7,700 -60 Level Boston Center
09:08AM 42.6478 -72.8014 100° East 163 188 7,600 -60 Descending Boston Center
09:09AM 42.6375 -72.7364 102° East 163 188 7,600  Level Boston Center
09:10AM 42.6272 -72.6800 104° East 163 188 7,600 -60 Level Boston Center
09:11AM 42.6192 -72.6178 100° East 163 188 7,500 -60 Descending Boston Center
09:12AM 42.6108 -72.5586 101° East 163 188 7,500  Level Boston Center
09:13AM 42.6006 -72.4992 103° East 163 188 7,500  Level Boston Center
09:14AM 42.5922 -72.4400 101° East 163 188 7,500  Level Boston Center
09:15AM 42.5817 -72.3808 104° East 163 188 7,500  Level Boston Center
09:16AM 42.5711 -72.3075 101° East 163 188 7,500  Level Boston Center
09:17AM 42.5608 -72.2542 105° East 163 188 7,500  Level Boston Center
09:18AM 42.5522 -72.1892 100° East 163 188 7,500  Level Boston Center
09:19AM 42.5417 -72.1358 105° East 163 188 7,500  Level Boston Center
09:20AM 42.5331 -72.0711 100° East 163 188 7,500  Level Boston Center
09:21AM 42.5225 -72.0119 104° East 158 182 7,500  Level Boston Center
09:22AM 42.5139 -71.9528 101° East 158 182 7,500  Level Boston Center
09:23AM 42.5053 -71.8939 101° East 158 182 7,500  Level Boston Center
09:24AM 42.4967 -71.8375 102° East 158 182 7,500 -300 Level Boston Center
09:25AM 42.4903 -71.7756 98° East 164 189 7,000 -480 Descending Boston Center
09:26AM 42.4856 -71.7081 95° East 169 194 6,600 -480 Descending Boston Center
09:27AM 42.4808 -71.6406 95° East 169 194 6,100 -660 Descending Boston Center
09:28AM 42.4742 -71.5731 98° East 179 206 5,300 -720 Descending Boston Center
09:29AM 42.4694 -71.5000 95° East 184 212 4,700 -420 Descending Boston Center
09:30AM 42.4669 -71.4381 93° East 179 206 4,500 -120 Descending Boston Center
09:31AM 42.4664 -71.3761 91° East 168 193 4,500  Level Boston Center
09:32AM 42.4617 -71.3200 96° East 157 181 4,500  Level Boston Center
09:33AM 42.4567 -71.2611 97° East 157 181 4,500  Level Boston Center
09:34AM 42.4542 -71.2103 94° East 157 181 4,500  Level Boston Center
09:34AM 42.4500 -71.1667 97° East 153 176 4,500  Level KA90
09:35AM 42.4333 -71.1333 124° Southeast 161 185 4,500  Level KA90
09:36AM 42.3833 -71.1167 166° South 160 184 4,500 -180 Level KA90
09:37AM 42.3614 -71.1250 196° South 162 186 4,300 -600 Descending Boston Center
09:38AM 42.3158 -71.1431 196° South 184 212 3,600 -540 Descending Boston Center
09:40AM 42.2000 -71.1833 194° South 165 190 2,500 -360 Descending KA90
09:41AM 42.1833 -71.1167 109° East 162 186 2,500  Level KA90
09:42AM 42.2167 -71.0833 37° Northeast 158 182 2,500 -180 Level KA90
09:43AM 42.2500 -71.0500 37° Northeast 163 188 2,200 -480 Descending KA90
09:44AM 42.3000 -71.0333 14° North 169 194 1,500 -840 Descending KA90
09:45AM 42.3333 -71.0167 20° North 143 165 500 -1,020 Descending KA90
09:47AM 42.3630 -71.0064 26° Northeast  Level Estimated
09:54AM 42.3630 -71.0064 270° West  Level Estimated
09:55AM 42.3630 -71.0064 270° West  Level Estimated